Wind_Speed
15 15 16 15 16 18 19 20 21 22 23 24 25 27 28 30 31 31 31 36 37 37 40 44 46 47 47 44 43 44 44 43 46 46 41 42 41 40 39 38 37 36 35
18 20 20 18 18 19 21 22 24 25 26 28 29 29 31 32 34 34 35 39 41 41 43 45 48 52 52 53 46 42 42 45 44 46 49 45 41 42 41 42 41 41 39
19 20 23 22 22 23 25 25 26 28 30 31 31 32 34 35 36 37 39 41 45 46 46 46 53 53 52 56 54 47 43 41 44 45 45 48 48 45 44 44 45 46 45
20 22 24 25 25 25 27 28 29 31 34 35 35 36 37 38 39 41 44 43 44 46 50 49 55 57 56 55 50 48 47 45 43 44 45 46 47 48 46 49 49 48 49
23 25 25 27 28 26 28 30 31 34 36 37 38 39 39 40 43 45 46 47 49 50 53 53 60 61 59 53 50 49 47 44 44 44 43 45 47 48 47 45 50 55 54
26 28 28 29 28 29 31 33 34 39 40 42 44 45 45 45 47 49 50 51 52 55 56 58 65 67 60 56 54 50 44 42 41 42 44 45 47 48 50 51 48 48 54
26 28 30 31 32 34 34 35 39 42 45 47 48 48 46 47 49 50 51 52 51 55 58 63 67 65 59 58 55 51 46 42 40 41 44 46 48 50 53 54 54 51 50
28 29 32 33 34 37 37 38 41 44 47 51 53 52 49 49 50 51 52 53 54 58 64 67 63 61 60 57 53 50 47 46 45 45 47 48 49 51 53 55 57 55 54
29 30 34 36 38 41 42 43 44 46 50 53 54 55 54 53 51 51 55 56 57 64 69 64 61 62 60 57 53 50 49 49 49 49 50 52 54 56 57 59 60 62 61
35 38 40 42 44 46 48 48 47 49 51 53 55 55 54 51 53 55 55 59 63 69 68 62 64 63 59 55 51 51 52 54 55 56 57 58 58 59 60 61 63 63 64
40 41 43 44 46 47 48 50 52 54 54 54 54 53 51 52 55 57 59 65 68 70 66 64 64 59 55 54 54 56 57 58 59 60 63 64 65 66 67 67 68 68 69
42 43 44 45 47 49 50 52 53 55 54 54 53 53 55 56 58 59 67 67 70 66 66 65 61 59 59 60 60 61 62 63 65 67 68 69 71 72 72 73 74 75 75
42 43 45 45 46 49 50 52 56 56 56 54 54 56 59 61 63 67 72 71 67 68 68 64 63 63 64 65 66 67 68 70 71 73 74 76 78 79 80 82 82 83 83
45 44 44 43 44 46 49 53 54 52 52 53 57 59 60 64 67 72 71 68 70 69 68 68 68 69 71 73 74 75 77 79 81 83 85 87 88 89 90 91 92 93 94
47 50 54 53 53 54 50 47 47 49 53 55 58 62 66 70 72 68 70 70 70 69 70 72 74 77 79 81 83 85 87 90 91 92 94 95 96 98 99 100 101 101 101
49 42 42 40 40 42 43 45 47 50 53 60 65 66 68 65 69 70 71 70 71 72 75 78 81 84 87 89 92 94 95 96 97 98 98 100 101 102 103 103 103 104 104
45 42 40 37 38 39 42 48 53 57 58 59 61 64 67 67 68 68 70 72 75 78 82 85 88 92 94 97 98 100 101 101 101 101 101 100 99 100 102 101 98 94 90
44 42 41 43 44 44 43 43 48 53 57 60 63 64 63 64 66 69 73 77 81 85 88 92 95 99 101 103 104 104 105 104 102 98 97 96 90 85 83 79 72 65 60
40 39 38 37 35 41 46 46 49 53 59 60 60 59 61 66 70 75 80 84 87 91 95 99 103 105 105 107 108 107 104 98 95 88 80 74 68 62 59 58 55 49 46
36 38 37 39 42 43 47 51 54 54 55 52 57 61 66 72 77 82 87 91 96 99 103 105 107 109 110 107 101 96 93 85 77 65 56 51 50 49 49 48 46 41 39
38 39 39 42 44 49 50 50 50 49 51 55 61 67 73 78 83 89 94 99 103 106 109 112 113 108 98 91 85 77 70 62 53 46 44 43 42 40 40 40 39 36 32
38 40 41 42 45 46 46 44 46 49 55 60 66 72 79 85 92 97 102 105 109 113 116 113 100 89 82 74 65 56 48 45 43 38 36 35 35 34 33 34 34 33 30
36 38 40 41 42 41 40 44 49 55 61 67 74 81 88 93 98 103 108 113 118 116 105 92 81 71 61 52 45 41 38 34 31 27 24 25 27 28 28 28 29 28 27
35 37 37 36 36 38 42 48 55 62 68 75 82 88 93 97 103 109 114 117 107 94 82 73 62 50 41 37 33 27 22 19 19 22 26 28 29 30 30 29 29 28 26
31 32 31 32 36 42 48 56 63 69 75 82 88 92 97 103 109 115 114 100 85 75 65 54 43 37 30 25 18 15 18 21 21 21 22 24 26 26 27 27 28 27 25
27 28 30 35 41 48 56 63 69 75 82 87 92 97 102 109 115 111 91 77 65 55 47 41 36 27 20 14 17 18 19 19 19 21 22 24 26 27 28 27 25 25 23
Wind_Direction
297 296 299 308 313 314 313 311 310 313 316 317 317 314 311 311 313 313 318 323 321 317 319 323 325 320 322 319 306 296 290 285 284 283 280 280 278 279 280 279 279 279 280
299 301 299 303 305 304 305 305 304 304 305 306 307 305 305 307 308 308 307 309 313 314 315 317 322 321 316 319 314 306 294 289 283 282 282 278 274 277 276 277 276 276 275
293 295 298 299 302 301 302 302 301 301 301 303 306 306 306 306 305 305 306 309 312 312 316 318 321 318 314 314 313 307 301 292 286 280 277 278 279 276 274 272 273 273 273
290 296 297 297 297 297 298 299 299 300 302 305 307 307 306 305 304 303 306 306 308 312 314 311 317 316 312 311 309 306 302 297 290 284 280 275 273 273 274 278 275 272 272
289 292 293 294 295 297 298 300 299 297 299 302 303 303 303 304 306 306 305 310 310 309 308 307 314 315 313 310 309 308 302 295 291 287 282 279 277 275 271 264 271 277 277
289 292 293 294 298 301 301 302 299 299 301 303 304 306 309 308 307 306 306 307 310 311 309 309 313 314 312 310 310 309 304 297 292 287 284 280 278 277 277 275 269 264 268
287 290 293 297 300 299 299 299 297 297 300 302 301 302 305 305 304 303 301 304 309 312 310 311 312 311 309 309 308 306 303 300 295 290 287 285 284 282 280 278 276 274 268
285 287 288 289 294 294 294 294 293 293 297 299 300 301 303 302 301 299 299 301 303 311 315 313 311 308 308 307 306 305 302 300 297 294 291 288 286 283 281 280 279 278 277
288 288 290 293 294 293 294 295 293 292 296 298 300 301 302 301 299 299 300 303 303 312 313 311 308 308 307 307 306 305 302 300 298 296 294 292 290 288 286 284 281 279 276
289 293 294 295 296 296 297 296 293 293 295 296 297 298 298 299 300 301 304 306 309 311 311 309 309 309 307 307 306 304 301 299 298 296 294 291 289 287 285 283 281 280 277
292 294 294 294 294 293 292 292 292 293 293 293 296 299 301 302 303 305 309 310 310 310 308 310 309 307 306 304 302 300 299 297 296 294 292 290 289 287 285 283 281 279 277
294 295 294 293 292 291 291 291 290 290 294 300 304 304 304 305 304 305 311 311 311 309 309 309 307 305 304 303 301 299 298 297 294 292 291 290 288 286 284 283 283 281 280
291 290 290 289 291 292 292 293 295 299 303 306 305 306 306 308 309 308 311 311 311 309 308 307 306 305 304 301 300 299 297 295 294 292 290 288 286 285 284 282 280 279 277
291 293 294 296 297 298 300 302 301 302 305 305 305 306 308 309 310 311 311 310 308 307 308 308 307 304 302 301 301 300 298 297 295 293 291 290 288 286 284 282 280 278 276
292 292 293 294 298 303 302 301 302 303 302 303 305 306 307 308 310 311 309 307 308 308 308 307 306 305 305 304 302 300 299 297 296 295 294 292 290 287 285 282 280 279 277
294 298 304 305 303 303 303 302 302 303 304 305 306 307 310 310 309 307 308 308 308 308 307 307 306 305 304 303 302 300 299 298 296 294 292 290 289 288 286 285 284 281 279
302 305 306 308 306 304 303 303 303 305 307 309 310 310 308 307 308 308 308 308 308 308 308 307 306 305 303 302 300 299 297 297 296 296 295 294 289 284 281 279 280 283 284
303 304 304 300 300 306 308 309 310 309 308 308 308 308 310 309 308 308 309 309 309 308 307 306 304 304 302 302 301 300 300 301 301 296 290 291 294 294 293 292 290 288 286
302 301 302 307 309 311 312 313 311 308 308 310 311 311 309 310 311 310 309 309 308 307 306 306 305 304 303 303 304 305 304 298 295 299 301 299 297 296 295 294 292 290 286
297 300 305 311 312 314 317 312 311 311 312 312 312 312 313 312 311 310 310 309 309 308 307 306 306 306 308 309 305 300 299 303 304 304 301 298 298 299 297 295 295 293 288
303 306 308 310 312 315 313 312 313 314 314 316 315 314 313 311 311 312 312 310 310 308 307 307 308 310 307 303 304 306 307 307 307 306 304 303 302 300 299 299 299 298 294
303 306 309 308 310 312 312 314 315 317 316 315 314 313 313 314 314 312 312 311 309 308 308 311 312 307 307 308 308 309 310 310 311 311 311 311 310 313 313 309 307 305 302
303 305 306 309 312 313 316 318 318 316 315 316 316 316 316 315 315 314 312 311 309 311 314 312 311 311 311 313 313 313 314 315 318 327 333 330 328 329 330 330 326 318 310
303 306 310 313 316 319 319 318 317 319 319 319 318 317 317 317 315 313 311 311 315 316 314 314 315 317 318 317 317 321 326 335 338 330 322 320 320 320 321 323 324 329 325
309 312 316 318 321 320 320 320 321 321 321 320 318 318 318 317 315 313 314 318 317 316 317 319 324 325 326 328 338 350 340 336 340 341 342 342 342 337 332 328 327 327 331
315 317 319 321 321 322 323 322 322 321 322 321 320 319 318 316 314 316 321 321 319 319 322 327 331 335 346 8 354 352 354 3 2 357 354 351 352 354 353 347 336 336 337
Height
5873 5872 5871 5869 5867 5865 5863 5861 5858 5854 5850 5847 5845 5841 5838 5835 5832 5828 5823 5819 5816 5812 5808 5804 5799 5793 5789 5784 5779 5774 5772 5770 5763 5761 5764 5761 5760 5758 5758 5757 5757 5756 5756
5871 5871 5869 5866 5864 5862 5859 5856 5853 5849 5846 5843 5840 5837 5834 5830 5826 5821 5815 5811 5808 5803 5799 5794 5788 5783 5777 5772 5768 5764 5761 5758 5757 5752 5747 5749 5752 5749 5749 5746 5746 5745 5746
5869 5867 5866 5863 5861 5858 5855 5851 5847 5843 5840 5837 5834 5830 5827 5824 5819 5815 5811 5806 5799 5793 5789 5784 5779 5773 5767 5761 5755 5751 5748 5746 5743 5742 5741 5738 5736 5737 5737 5737 5735 5734 5734
5864 5863 5861 5858 5856 5853 5849 5846 5841 5836 5832 5829 5827 5824 5820 5816 5811 5807 5802 5796 5789 5784 5779 5774 5769 5763 5757 5751 5745 5740 5735 5732 5730 5729 5727 5726 5726 5724 5726 5722 5722 5723 5722
5859 5858 5855 5852 5849 5847 5843 5838 5833 5827 5824 5822 5819 5816 5813 5808 5803 5797 5791 5785 5780 5774 5769 5764 5758 5751 5744 5738 5734 5729 5724 5720 5716 5715 5715 5713 5710 5710 5711 5715 5710 5706 5706
5854 5851 5848 5846 5843 5840 5836 5831 5826 5820 5817 5814 5811 5807 5802 5797 5792 5787 5781 5775 5769 5764 5758 5752 5745 5738 5731 5725 5720 5716 5711 5707 5705 5702 5699 5699 5698 5697 5695 5695 5699 5700 5695
5848 5845 5843 5841 5837 5833 5829 5824 5818 5813 5809 5805 5802 5798 5793 5788 5783 5778 5771 5765 5760 5754 5748 5741 5734 5727 5720 5714 5708 5702 5698 5695 5692 5690 5689 5686 5684 5682 5681 5680 5681 5682 5683
5844 5842 5838 5835 5831 5826 5822 5817 5812 5807 5801 5796 5792 5788 5782 5778 5773 5768 5761 5755 5749 5744 5737 5729 5721 5715 5708 5701 5696 5690 5686 5682 5680 5677 5675 5673 5670 5668 5665 5664 5662 5663 5663
5838 5835 5831 5828 5823 5818 5814 5809 5804 5800 5795 5790 5784 5778 5773 5768 5762 5755 5749 5744 5738 5731 5723 5715 5707 5700 5693 5687 5682 5677 5673 5669 5666 5662 5660 5657 5654 5651 5649 5647 5645 5644 5645
5829 5827 5823 5818 5814 5809 5804 5800 5795 5790 5785 5779 5774 5768 5763 5756 5750 5743 5737 5731 5724 5717 5708 5700 5693 5686 5679 5673 5668 5663 5659 5655 5651 5647 5643 5639 5636 5633 5629 5626 5623 5621 5621
5821 5817 5813 5809 5805 5800 5794 5790 5784 5779 5773 5767 5762 5756 5750 5743 5737 5731 5724 5717 5710 5701 5694 5686 5679 5672 5666 5660 5655 5650 5646 5641 5636 5631 5626 5621 5617 5613 5609 5606 5603 5600 5597
5811 5807 5803 5799 5793 5788 5782 5777 5772 5766 5761 5755 5749 5743 5737 5730 5723 5717 5710 5701 5693 5686 5678 5671 5664 5658 5652 5646 5641 5635 5630 5625 5619 5613 5608 5602 5597 5593 5588 5585 5581 5577 5574
5800 5795 5791 5786 5781 5776 5770 5765 5760 5754 5748 5742 5736 5730 5723 5716 5710 5702 5694 5686 5677 5670 5663 5655 5649 5643 5637 5630 5623 5618 5612 5606 5599 5592 5586 5579 5574 5569 5565 5561 5556 5552 5548
5785 5781 5777 5774 5769 5765 5760 5754 5749 5743 5737 5730 5724 5717 5711 5704 5696 5688 5680 5671 5663 5655 5648 5641 5634 5626 5618 5610 5604 5597 5591 5584 5577 5568 5560 5553 5547 5540 5534 5529 5524 5519 5514
5774 5771 5766 5762 5758 5754 5749 5744 5739 5732 5726 5720 5713 5706 5699 5691 5683 5674 5666 5657 5649 5641 5633 5624 5616 5607 5598 5590 5582 5574 5566 5557 5549 5540 5531 5523 5514 5505 5498 5493 5488 5481 5476
5763 5758 5754 5750 5746 5743 5738 5733 5728 5722 5715 5709 5702 5694 5686 5677 5669 5660 5652 5643 5634 5624 5615 5606 5597 5588 5578 5567 5557 5546 5538 5529 5519 5510 5500 5488 5478 5468 5460 5453 5448 5439 5430
5751 5747 5743 5740 5737 5733 5728 5723 5718 5711 5704 5696 5689 5681 5674 5664 5656 5647 5638 5627 5617 5608 5598 5588 5577 5566 5554 5542 5529 5517 5506 5498 5488 5476 5465 5452 5440 5426 5415 5410 5405 5397 5386
5742 5738 5735 5731 5728 5723 5718 5712 5706 5700 5694 5686 5678 5669 5661 5652 5643 5633 5623 5613 5602 5590 5579 5567 5554 5541 5526 5512 5498 5486 5473 5463 5453 5439 5423 5410 5401 5390 5379 5377 5377 5371 5363
5734 5730 5726 5723 5718 5714 5708 5703 5698 5691 5683 5675 5667 5658 5650 5640 5629 5618 5607 5595 5583 5571 5557 5542 5526 5509 5495 5479 5463 5450 5436 5425 5414 5405 5393 5380 5372 5365 5359 5354 5353 5352 5347
5725 5722 5718 5715 5710 5705 5700 5694 5687 5680 5673 5665 5656 5647 5637 5626 5614 5601 5589 5575 5561 5547 5531 5516 5497 5479 5462 5447 5431 5416 5402 5395 5387 5381 5371 5363 5355 5350 5345 5339 5336 5335 5331
5718 5715 5711 5706 5702 5697 5691 5684 5678 5670 5663 5654 5644 5634 5623 5610 5597 5583 5567 5553 5537 5520 5504 5488 5470 5449 5431 5415 5402 5390 5380 5373 5368 5363 5357 5350 5344 5339 5333 5327 5323 5320 5319
5711 5707 5703 5699 5694 5688 5682 5675 5669 5661 5653 5643 5633 5621 5608 5593 5577 5562 5545 5526 5507 5490 5472 5455 5440 5422 5406 5393 5383 5374 5366 5360 5355 5351 5346 5340 5335 5330 5324 5318 5313 5309 5307
5704 5700 5695 5691 5685 5679 5673 5667 5660 5651 5641 5630 5618 5605 5590 5574 5555 5537 5519 5500 5478 5458 5442 5425 5412 5401 5388 5378 5370 5364 5359 5353 5348 5344 5339 5334 5329 5324 5318 5312 5306 5302 5299
5695 5691 5687 5682 5677 5672 5666 5658 5649 5639 5628 5616 5603 5588 5572 5554 5534 5513 5490 5468 5447 5432 5416 5404 5394 5385 5377 5370 5364 5358 5354 5349 5345 5341 5337 5331 5325 5318 5313 5307 5302 5297 5293
5687 5683 5679 5675 5670 5664 5656 5647 5637 5626 5614 5601 5586 5569 5552 5533 5513 5488 5461 5442 5423 5406 5397 5389 5382 5375 5370 5364 5359 5355 5352 5347 5343 5338 5333 5327 5321 5315 5308 5302 5297 5293 5289
5681 5677 5673 5669 5662 5655 5645 5635 5624 5612 5599 5584 5567 5549 5530 5509 5486 5464 5445 5422 5406 5396 5387 5380 5375 5370 5364 5361 5358 5354 5349 5346 5342 5337 5332 5325 5319 5312 5306 5300 5295 5290 5285